Regional Weather Roundup
Issued by NWS

Home | Current Version | Previous Version | Graphics & Text | Print | Product List | Glossary On
Versions: 1 2 3 4 5 6 7 8 9 10 11 12 13 14 15 16 17 18 19 20 21 22 23 24 25 26 27 28 29 30 31 32 33 34 35 36 37 38 39 40 41 42 43 44 45 46 47 48 49 50
000
ASUS43 KBIS 051402
RWRND

NORTH DAKOTA REGIONAL WEATHER ROUNDUP
NATIONAL WEATHER SERVICE BISMARCK ND
900 AM CDT SUN JUL 05 2015

NOTE: "FAIR" INDICATES FEW OR NO CLOUDS BELOW 12,000 FEET WITH NO
SIGNIFICANT WEATHER AND/OR OBSTRUCTIONS TO VISIBILITY.


NDZ001>003-009>011-017-051500-
NORTHWEST NORTH DAKOTA

CITY           SKY/WX    TMP DP  RH WIND       PRES   REMARKS
WILLISTON      CLOUDY    67  63  87 N13       29.89R FOG
MINOT          LGT RAIN  64  62  93 N8        29.82F FOG
MINOT AFB      LGT RAIN  64  64 100 N8        29.81F
$$

NDZ018>021-031>035-040>046-051500-
SOUTHWEST NORTH DAKOTA

CITY           SKY/WX    TMP DP  RH WIND       PRES   REMARKS
BISMARCK       LGT RAIN  70  68  93 VRB3      29.80S FOG
DICKINSON      PTSUNNY   64  58  80 N21G32    29.85S
GARRISON         N/A     64  62  93 N14       29.85R
HETTINGER ARPT TSTM      63  61  93 N23G32    29.86S FOG
$$

NDZ004>008-012>016-024-026-027-054-051500-
NORTHEAST NORTH DAKOTA

CITY           SKY/WX    TMP DP  RH WIND       PRES   REMARKS
GRAND FORKS    PTSUNNY   73  68  84 S13       29.70F
GRND FRKS AFB  PTSUNNY   73  68  84 S13       29.70F
DEVILS LAKE    CLOUDY    68  63  83 N12       29.72S
$$

NDZ022-023-025-028>030-036>039-047>053-051500-
SOUTHEAST NORTH DAKOTA

CITY           SKY/WX    TMP DP  RH WIND       PRES   REMARKS
FARGO          SUNNY     75  65  70 SE18G26   29.74F
JAMESTOWN      PTSUNNY   76  68  76 SE6       29.73S
$$



USA.gov is the U.S. government's official web portal to all federal, state and local government web resources and services.